Tracking 34171 objects as of 21-May-2026
HD Live streaming from Space Station
objects crossing your sky now

STARLINK-37212

Track STARLINK-37212 now!
10-day predictions
STARLINK-37212 is classified as:


NORAD ID: 68566
Int'l Code: 2026-070AA
Perigee: 469.2 km
Apogee: 470.6 km
Inclination: 53.2 °
Period: 93.8 minutes
Semi major axis: 6840 km
RCS: Unknown
Launch date: April 2, 2026
Source: United States (US)
Launch site: AIR FORCE EASTERN TEST RANGE (AFETR)
Your satellite tracking list
Your tracking list is empty




NASA's NSSDC Master Catalog

Two Line Element Set (TLE):
1 68566U 26070AA  26140.91668981 -.00004311  00000-0 -11661-3 0  9996
2 68566  53.1589  26.4352 0000977 111.6297 196.3796 15.34381576  6040
Source of the keplerian elements: AFSPC